Time,TemperatureF,DewpointF,PressureIn,WindDirection,WindDirectionDegrees,WindSpeedMPH,WindSpeedGustMPH,Humidity,HourlyPrecipIn,Conditions,Clouds,dailyrainin,SolarRadiationWatts/m^2,SoftwareType,DateUTC
2017-11-23 00:01:00,62.2,39.4,30.08,NW,319,0.0,7.0,43,0.00,,,0.00,0,WeatherTracker,2017-11-23 08:01:00,
2017-11-23 00:11:00,62.1,38.7,30.07,NNW,343,4.0,6.0,42,0.00,,,0.00,0,WeatherTracker,2017-11-23 08:11:00,
2017-11-23 00:21:00,62.1,38.7,30.07,NW,308,0.0,7.0,42,0.00,,,0.00,0,WeatherTracker,2017-11-23 08:21:00,
2017-11-23 00:26:00,62.1,38.7,30.08,NW,305,3.0,7.0,42,0.00,,,0.00,0,WeatherTracker,2017-11-23 08:26:00,
2017-11-23 00:31:00,62.1,38.7,30.07,NW,315,6.0,8.0,42,0.00,,,0.00,0,WeatherTracker,2017-11-23 08:31:00,
2017-11-23 00:37:00,62.0,38.6,30.07,WNW,298,0.0,8.0,42,0.00,,,0.00,0,WeatherTracker,2017-11-23 08:37:00,
2017-11-23 00:45:00,61.8,38.5,30.07,NW,304,3.0,7.0,42,0.00,,,0.00,0,WeatherTracker,2017-11-23 08:45:00,
2017-11-23 00:50:00,61.8,37.8,30.07,WNW,303,2.0,6.0,41,0.00,,,0.00,0,WeatherTracker,2017-11-23 08:50:00,
2017-11-23 01:00:00,61.9,37.9,30.07,WNW,300,0.0,6.0,41,0.00,,,0.00,0,WeatherTracker,2017-11-23 09:00:00,
2017-11-23 01:05:00,61.8,37.8,30.06,WNW,302,2.0,6.0,41,0.00,,,0.00,0,WeatherTracker,2017-11-23 09:05:00,
2017-11-23 01:10:00,61.9,37.9,30.07,WNW,295,0.0,6.0,41,0.00,,,0.00,0,WeatherTracker,2017-11-23 09:10:00,
2017-11-23 01:15:00,61.9,37.9,30.07,NW,326,0.0,6.0,41,0.00,,,0.00,0,WeatherTracker,2017-11-23 09:15:00,
2017-11-23 01:20:00,62.0,38.0,30.07,NW,313,1.0,5.0,41,0.00,,,0.00,0,WeatherTracker,2017-11-23 09:20:00,
2017-11-23 01:25:00,61.9,37.9,30.07,WNW,287,4.0,5.0,41,0.00,,,0.00,0,WeatherTracker,2017-11-23 09:25:00,
2017-11-23 01:30:00,61.9,37.3,30.07,NNW,336,5.0,6.0,40,0.00,,,0.00,0,WeatherTracker,2017-11-23 09:30:00,
2017-11-23 01:32:00,61.9,37.3,30.07,WNW,290,0.0,6.0,40,0.00,,,0.00,0,WeatherTracker,2017-11-23 09:32:00,
2017-11-23 01:37:00,61.8,37.8,30.07,NW,315,4.0,6.0,41,0.00,,,0.00,0,WeatherTracker,2017-11-23 09:37:00,
2017-11-23 01:47:00,61.8,38.5,30.07,NW,313,0.0,7.0,42,0.00,,,0.00,0,WeatherTracker,2017-11-23 09:47:00,
2017-11-23 01:53:00,61.5,38.8,30.07,NW,309,0.0,0.0,43,0.00,,,0.00,0,WeatherTracker,2017-11-23 09:53:00,
2017-11-23 01:58:00,61.4,38.7,30.07,NW,309,0.0,0.0,43,0.00,,,0.00,0,WeatherTracker,2017-11-23 09:58:00,
2017-11-23 02:03:00,61.4,39.3,30.07,NW,309,0.0,0.0,44,0.00,,,0.00,0,WeatherTracker,2017-11-23 10:03:00,
2017-11-23 02:08:00,61.4,39.3,30.08,NW,309,0.0,0.0,44,0.00,,,0.00,0,WeatherTracker,2017-11-23 10:08:00,
2017-11-23 02:13:00,61.3,38.6,30.08,WNW,302,0.0,4.0,43,0.00,,,0.00,0,WeatherTracker,2017-11-23 10:13:00,
2017-11-23 02:18:00,61.3,38.6,30.08,WNW,302,0.0,4.0,43,0.00,,,0.00,0,WeatherTracker,2017-11-23 10:18:00,
2017-11-23 02:28:00,61.2,37.9,30.08,WNW,284,0.0,5.0,42,0.00,,,0.00,0,WeatherTracker,2017-11-23 10:28:00,
2017-11-23 02:29:00,61.1,37.8,30.09,NW,304,0.0,5.0,42,0.00,,,0.00,0,WeatherTracker,2017-11-23 10:29:00,
2017-11-23 02:39:00,60.7,37.5,30.08,NW,310,0.0,5.0,42,0.00,,,0.00,0,WeatherTracker,2017-11-23 10:39:00,
2017-11-23 02:44:00,60.6,37.4,30.08,NW,311,2.0,3.0,42,0.00,,,0.00,0,WeatherTracker,2017-11-23 10:44:00,
2017-11-23 02:49:00,60.4,37.2,30.08,WNW,291,5.0,5.0,42,0.00,,,0.00,0,WeatherTracker,2017-11-23 10:49:00,
2017-11-23 02:54:00,60.1,37.5,30.08,NW,306,0.0,7.0,43,0.00,,,0.00,0,WeatherTracker,2017-11-23 10:54:00,
2017-11-23 03:00:00,59.8,37.8,30.09,WNW,302,0.0,5.0,44,0.00,,,0.00,0,WeatherTracker,2017-11-23 11:00:00,
2017-11-23 03:01:00,59.7,37.8,30.09,WNW,302,0.0,5.0,44,0.00,,,0.00,0,WeatherTracker,2017-11-23 11:01:00,
2017-11-23 03:06:00,59.0,37.7,30.09,NNW,339,5.0,5.0,45,0.00,,,0.00,0,WeatherTracker,2017-11-23 11:06:00,
2017-11-23 03:16:00,59.0,37.1,30.09,NW,311,4.0,8.0,44,0.00,,,0.00,0,WeatherTracker,2017-11-23 11:16:00,
2017-11-23 03:26:00,59.8,36.7,30.09,WNW,300,0.0,9.0,42,0.00,,,0.00,0,WeatherTracker,2017-11-23 11:26:00,
2017-11-23 03:36:00,60.1,37.5,30.08,NW,319,4.0,7.0,43,0.00,,,0.00,0,WeatherTracker,2017-11-23 11:36:00,
2017-11-23 03:46:00,60.8,37.6,30.08,NW,304,3.0,8.0,42,0.00,,,0.00,0,WeatherTracker,2017-11-23 11:46:00,